STARLINK-32777 (62525 NORAD) Tracking and Keplerian Element Data

This shows tracking and keplerian element data for the satellite.

Feedback or suggestion? Click here.




ElementValue
Catalog62525
NameSTARLINK-32777
Epoch Orbit544
Epoch Day35.33335648
Epoch Year2025
RAAN314.8204
Inclination42.999
Eccentricity0.0001429
Argument of Perigee268.8017
Mean Anonmoly131.3803
Mean Motion15.50432795
Decay Rate0.00229874
L11 62525U 25004Q 25035.33335648 .00229874 00000+0 38300-2 0 9998
L22 62525 42.9990 314.8204 0001429 268.8017 131.3803 15.50432795 5448



Live tracking and technical data element details for STARLINK-32777 (NORAD 62525). STARLINK-32777 can be tracked NOW for your location showing map with azimuth and elevation plus other details from your city location.







IsCatalogInMostPopularTable: catalog: 62525, numindb: 15
Update: records affected: 1



GetName: 62525 STARLINK-32777

Hit Count: updated at: Sun, 18 May 2025 22:11:29 GMT